timestamp,wind_dir_avg,wind_spd_max_dir,wind_spd_avg,wind_spd_gust,battery_voltage,lat,long
2018-05-31 00:00:00+00:00,13.0,11.0,14.97,19.17,,47.59359,-54.27349
2018-05-31 00:10:00+00:00,17.0,23.0,14.47,17.82,,47.59359,-54.27349
2018-05-31 00:20:00+00:00,13.0,12.0,14.54,18.97,,47.59359,-54.27349
2018-05-31 00:30:00+00:00,8.0,7.0,15.69,18.44,,47.59359,-54.27349
2018-05-31 00:40:00+00:00,11.0,4.0,15.21,17.86,,47.59359,-54.27349
2018-05-31 00:50:00+00:00,12.0,12.0,16.72,19.18,,47.59359,-54.27349
2018-05-31 01:00:00+00:00,13.0,15.0,15.85,18.4,,47.59359,-54.27349
2018-05-31 01:10:00+00:00,11.0,16.0,15.63,18.29,,47.59359,-54.27349
2018-05-31 01:20:00+00:00,9.0,10.0,16.2,18.2,,47.59359,-54.27349
2018-05-31 01:30:00+00:00,9.0,12.0,16.02,18.67,,47.59359,-54.27349
2018-05-31 01:40:00+00:00,10.0,9.0,16.53,18.26,,47.59359,-54.27349
2018-05-31 01:50:00+00:00,7.0,8.0,16.49,19.54,,47.59359,-54.27349
2018-05-31 02:00:00+00:00,8.0,4.0,14.74,18.27,,47.59359,-54.27349
2018-05-31 02:10:00+00:00,9.0,12.0,14.54,17.0,,47.59359,-54.27349
2018-05-31 02:20:00+00:00,10.0,7.0,15.49,18.64,,47.59359,-54.27349
2018-05-31 02:30:00+00:00,9.0,9.0,16.34,19.5,,47.59359,-54.27349
2018-05-31 02:40:00+00:00,6.0,10.0,15.56,17.61,,47.59359,-54.27349
2018-05-31 02:50:00+00:00,7.0,12.0,15.1,17.01,,47.59359,-54.27349
2018-05-31 03:00:00+00:00,12.0,13.0,14.5,16.68,,47.59359,-54.27349
2018-05-31 03:10:00+00:00,11.0,8.0,14.16,16.78,,47.59359,-54.27349
2018-05-31 03:20:00+00:00,9.0,5.0,14.49,16.72,,47.59359,-54.27349
2018-05-31 03:30:00+00:00,15.0,20.0,14.75,17.79,,47.59359,-54.27349
2018-05-31 03:40:00+00:00,15.0,17.0,14.2,17.47,,47.59359,-54.27349
2018-05-31 03:50:00+00:00,16.0,16.0,12.81,14.95,,47.59359,-54.27349
2018-05-31 04:00:00+00:00,11.0,10.0,14.88,17.08,,47.59359,-54.27349
2018-05-31 04:10:00+00:00,15.0,19.0,14.46,16.76,,47.59359,-54.27349
2018-05-31 04:20:00+00:00,17.0,14.0,14.89,17.12,,47.59359,-54.27349
2018-05-31 04:30:00+00:00,14.0,14.0,14.53,17.89,,47.59359,-54.27349
2018-05-31 04:40:00+00:00,17.0,22.0,14.05,16.53,,47.59359,-54.27349
2018-05-31 04:50:00+00:00,22.0,27.0,14.89,17.27,,47.59359,-54.27349
2018-05-31 05:00:00+00:00,20.0,21.0,14.01,17.22,,47.59359,-54.27349
2018-05-31 05:10:00+00:00,20.0,18.0,13.45,15.62,,47.59359,-54.27349
2018-05-31 05:20:00+00:00,22.0,26.0,15.82,19.07,,47.59359,-54.27349
2018-05-31 05:30:00+00:00,26.0,28.0,15.29,17.24,,47.59359,-54.27349
2018-05-31 05:40:00+00:00,24.0,26.0,15.11,18.45,,47.59359,-54.27349
2018-05-31 05:50:00+00:00,26.0,29.0,14.68,16.64,,47.59359,-54.27349
2018-05-31 06:00:00+00:00,22.0,33.0,16.61,21.12,,47.59359,-54.27349
2018-05-31 06:10:00+00:00,28.0,25.0,15.2,18.42,,47.59359,-54.27349
2018-05-31 06:20:00+00:00,26.0,26.0,13.91,17.34,,47.59359,-54.27349
2018-05-31 06:30:00+00:00,24.0,32.0,14.83,18.69,,47.59359,-54.27349
2018-05-31 06:40:00+00:00,22.0,25.0,11.33,15.3,,47.59359,-54.27349
2018-05-31 06:50:00+00:00,21.0,15.0,12.85,14.99,,47.59359,-54.27349
2018-05-31 07:00:00+00:00,22.0,27.0,11.83,14.01,,47.59359,-54.27349
2018-05-31 07:10:00+00:00,23.0,29.0,13.41,16.4,,47.59359,-54.27349
2018-05-31 07:20:00+00:00,24.0,31.0,12.52,14.78,,47.59359,-54.27349
2018-05-31 07:30:00+00:00,27.0,34.0,13.19,15.48,,47.59359,-54.27349
2018-05-31 07:40:00+00:00,23.0,22.0,13.49,14.85,,47.59359,-54.27349
2018-05-31 07:50:00+00:00,27.0,23.0,14.36,17.77,,47.59359,-54.27349
2018-05-31 08:00:00+00:00,26.0,25.0,14.17,16.75,,47.59359,-54.27349
2018-05-31 08:10:00+00:00,30.0,34.0,14.82,17.16,,47.59359,-54.27349
2018-05-31 08:20:00+00:00,21.0,18.0,13.98,16.48,,47.59359,-54.27349
2018-05-31 08:30:00+00:00,19.0,11.0,14.2,17.3,,47.59359,-54.27349
2018-05-31 08:40:00+00:00,22.0,15.0,13.97,16.24,,47.59359,-54.27349
2018-05-31 08:50:00+00:00,27.0,26.0,16.37,19.96,,47.59359,-54.27349
2018-05-31 09:00:00+00:00,29.0,38.0,13.52,16.23,,47.59359,-54.27349
2018-05-31 09:10:00+00:00,28.0,22.0,13.73,16.56,,47.59359,-54.27349
2018-05-31 09:20:00+00:00,31.0,34.0,17.83,20.9,,47.59359,-54.27349
2018-05-31 09:30:00+00:00,21.0,29.0,13.11,15.2,,47.59359,-54.27349
2018-05-31 09:40:00+00:00,24.0,26.0,14.6,17.9,,47.59359,-54.27349
2018-05-31 09:50:00+00:00,29.0,23.0,12.76,17.15,,47.59359,-54.27349
2018-05-31 10:00:00+00:00,25.0,26.0,12.46,15.43,,47.59359,-54.27349
2018-05-31 10:10:00+00:00,27.0,22.0,12.42,14.31,,47.59359,-54.27349
2018-05-31 10:20:00+00:00,25.0,17.0,12.46,14.51,,47.59359,-54.27349
2018-05-31 10:30:00+00:00,24.0,20.0,14.57,17.81,,47.59359,-54.27349
2018-05-31 10:40:00+00:00,24.0,26.0,13.2,16.67,,47.59359,-54.27349
2018-05-31 10:50:00+00:00,25.0,26.0,12.33,14.95,,47.59359,-54.27349
2018-05-31 11:00:00+00:00,28.0,30.0,16.35,19.31,,47.59359,-54.27349
2018-05-31 11:10:00+00:00,23.0,24.0,15.1,18.42,,47.59359,-54.27349
2018-05-31 11:20:00+00:00,24.0,24.0,12.31,14.75,,47.59359,-54.27349
2018-05-31 11:30:00+00:00,24.0,16.0,14.18,16.92,,47.59359,-54.27349
2018-05-31 11:40:00+00:00,23.0,30.0,11.66,14.1,,47.59359,-54.27349
2018-05-31 11:50:00+00:00,26.0,33.0,13.53,16.38,,47.59359,-54.27349
2018-05-31 12:00:00+00:00,22.0,29.0,13.05,15.78,,47.59359,-54.27349
2018-05-31 12:10:00+00:00,27.0,30.0,13.25,14.71,,47.59359,-54.27349
2018-05-31 12:20:00+00:00,25.0,15.0,12.59,16.94,,47.59359,-54.27349
2018-05-31 12:30:00+00:00,25.0,30.0,12.1,14.27,,47.59359,-54.27349
2018-05-31 12:40:00+00:00,19.0,18.0,15.29,18.27,,47.59359,-54.27349
2018-05-31 12:50:00+00:00,23.0,27.0,12.01,14.17,,47.59359,-54.27349
2018-05-31 13:00:00+00:00,29.0,30.0,12.59,15.48,,47.59359,-54.27349
2018-05-31 13:10:00+00:00,29.0,32.0,9.72,11.75,,47.59359,-54.27349
2018-05-31 13:20:00+00:00,31.0,26.0,9.95,11.5,,47.59359,-54.27349
2018-05-31 13:30:00+00:00,32.0,25.0,11.14,13.81,,47.59359,-54.27349
2018-05-31 13:40:00+00:00,31.0,31.0,10.39,12.26,,47.59359,-54.27349
2018-05-31 13:50:00+00:00,32.0,30.0,11.45,13.62,,47.59359,-54.27349
2018-05-31 14:00:00+00:00,33.0,36.0,12.36,15.2,,47.59359,-54.27349
2018-05-31 14:10:00+00:00,35.0,36.0,13.0,15.4,,47.59359,-54.27349
2018-05-31 14:20:00+00:00,33.0,33.0,12.51,14.66,,47.59359,-54.27349
2018-05-31 14:30:00+00:00,32.0,28.0,11.92,13.59,,47.59359,-54.27349
2018-05-31 14:40:00+00:00,27.0,19.0,11.02,14.18,,47.59359,-54.27349
2018-05-31 14:50:00+00:00,17.0,21.0,12.8,15.93,,47.59359,-54.27349
2018-05-31 15:00:00+00:00,22.0,27.0,13.16,15.97,,47.59359,-54.27349
2018-05-31 15:10:00+00:00,28.0,31.0,13.12,14.9,,47.59359,-54.27349
2018-05-31 15:20:00+00:00,27.0,33.0,12.08,13.51,,47.59359,-54.27349
2018-05-31 15:30:00+00:00,26.0,26.0,12.05,14.15,,47.59359,-54.27349
2018-05-31 15:40:00+00:00,24.0,25.0,11.2,12.6,,47.59359,-54.27349
2018-05-31 15:50:00+00:00,28.0,31.0,11.64,13.71,,47.59359,-54.27349
2018-05-31 16:00:00+00:00,31.0,34.0,11.06,12.51,,47.59359,-54.27349
2018-05-31 16:10:00+00:00,30.0,34.0,10.09,12.16,,47.59359,-54.27349
2018-05-31 16:20:00+00:00,34.0,33.0,11.42,13.06,,47.59359,-54.27349
2018-05-31 16:30:00+00:00,40.0,39.0,12.92,15.05,,47.59359,-54.27349
2018-05-31 16:40:00+00:00,32.0,31.0,9.7,10.62,,47.59359,-54.27349
2018-05-31 16:50:00+00:00,41.0,51.0,13.61,15.34,,47.59359,-54.27349
2018-05-31 17:00:00+00:00,31.0,33.0,11.39,13.2,,47.59359,-54.27349
2018-05-31 17:10:00+00:00,33.0,34.0,10.81,12.44,,47.59359,-54.27349
2018-05-31 17:20:00+00:00,38.0,36.0,10.43,11.91,,47.59359,-54.27349
2018-05-31 17:30:00+00:00,36.0,35.0,10.04,10.84,,47.59359,-54.27349
2018-05-31 17:40:00+00:00,38.0,38.0,10.92,11.76,,47.59359,-54.27349
2018-05-31 17:50:00+00:00,37.0,29.0,13.51,15.67,,47.59359,-54.27349
2018-05-31 18:00:00+00:00,33.0,36.0,9.24,10.88,,47.59359,-54.27349
2018-05-31 18:10:00+00:00,37.0,36.0,12.75,15.03,,47.59359,-54.27349
2018-05-31 18:20:00+00:00,33.0,37.0,12.52,14.34,,47.59359,-54.27349
2018-05-31 18:30:00+00:00,37.0,37.0,12.66,15.69,,47.59359,-54.27349
2018-05-31 18:40:00+00:00,36.0,40.0,9.6,10.43,,47.59359,-54.27349
2018-05-31 18:50:00+00:00,40.0,43.0,10.82,12.15,,47.59359,-54.27349
2018-05-31 19:00:00+00:00,42.0,41.0,11.76,13.24,,47.59359,-54.27349
2018-05-31 19:10:00+00:00,38.0,39.0,11.02,12.25,,47.59359,-54.27349
2018-05-31 19:20:00+00:00,35.0,36.0,10.26,10.98,,47.59359,-54.27349
2018-05-31 19:30:00+00:00,39.0,51.0,11.49,13.02,,47.59359,-54.27349
2018-05-31 19:40:00+00:00,41.0,42.0,12.52,14.04,,47.59359,-54.27349
2018-05-31 19:50:00+00:00,44.0,47.0,13.56,15.09,,47.59359,-54.27349
2018-05-31 20:00:00+00:00,49.0,47.0,13.58,14.81,,47.59359,-54.27349
2018-05-31 20:10:00+00:00,51.0,52.0,12.55,13.32,,47.59359,-54.27349
2018-05-31 20:20:00+00:00,52.0,50.0,13.11,14.35,,47.59359,-54.27349
2018-05-31 20:30:00+00:00,47.0,46.0,13.36,16.43,,47.59359,-54.27349
2018-05-31 20:40:00+00:00,59.0,56.0,11.31,12.42,,47.59359,-54.27349
2018-05-31 20:50:00+00:00,55.0,58.0,11.43,13.39,,47.59359,-54.27349
2018-05-31 21:00:00+00:00,57.0,56.0,10.8,11.71,,47.59359,-54.27349
2018-05-31 21:10:00+00:00,50.0,51.0,11.03,12.26,,47.59359,-54.27349
2018-05-31 21:20:00+00:00,56.0,52.0,10.07,12.42,,47.59359,-54.27349
2018-05-31 21:30:00+00:00,64.0,63.0,10.41,12.4,,47.59359,-54.27349
2018-05-31 21:40:00+00:00,66.0,62.0,8.34,9.51,,47.59359,-54.27349
2018-05-31 21:50:00+00:00,59.0,56.0,7.27,7.88,,47.59359,-54.27349
2018-05-31 22:00:00+00:00,56.0,55.0,7.05,8.17,,47.59359,-54.27349
2018-05-31 22:10:00+00:00,51.0,54.0,6.58,7.14,,47.59359,-54.27349
2018-05-31 22:20:00+00:00,45.0,38.0,7.24,7.91,,47.59359,-54.27349
2018-05-31 22:30:00+00:00,49.0,49.0,7.83,8.63,,47.59359,-54.27349
2018-05-31 22:40:00+00:00,40.0,40.0,7.86,8.35,,47.59359,-54.27349
2018-05-31 22:50:00+00:00,33.0,33.0,8.75,9.55,,47.59359,-54.27349
2018-05-31 23:00:00+00:00,38.0,37.0,8.91,10.66,,47.59359,-54.27349
2018-05-31 23:10:00+00:00,35.0,38.0,7.99,8.55,,47.59359,-54.27349
2018-05-31 23:20:00+00:00,33.0,35.0,6.77,7.19,,47.59359,-54.27349
2018-05-31 23:30:00+00:00,34.0,36.0,8.65,10.02,,47.59359,-54.27349
2018-05-31 23:40:00+00:00,36.0,37.0,8.5,9.23,,47.59359,-54.27349
2018-05-31 23:50:00+00:00,44.0,43.0,6.71,7.22,,47.59359,-54.27349
